Time,TemperatureF,DewpointF,PressureIn,WindDirection,WindDirectionDegrees,WindSpeedMPH,WindSpeedGustMPH,Humidity,HourlyPrecipIn,Conditions,Clouds,dailyrainin,SoftwareType,DateUTC
2013-11-23 00:19:00,40.0,38.0,29.81,WSW,247,0.0,0.0,94,0.00,,,0.00,TxWx,2013-11-23 05:19:00,
2013-11-23 00:24:00,40.0,38.0,29.81,WSW,247,0.0,0.0,94,0.00,,,0.00,TxWx,2013-11-23 05:24:00,
2013-11-23 00:29:00,39.0,37.0,29.81,WSW,247,0.0,0.0,94,0.00,,,0.00,TxWx,2013-11-23 05:29:00,
2013-11-23 00:35:00,39.0,37.0,29.81,WSW,247,0.0,0.0,93,0.00,,,0.00,TxWx,2013-11-23 05:35:00,
2013-11-23 00:40:00,39.0,37.0,29.81,WSW,247,0.0,0.0,93,0.00,,,0.00,TxWx,2013-11-23 05:40:00,
2013-11-23 00:46:00,39.0,37.0,29.81,WSW,247,0.0,0.0,92,0.00,,,0.00,TxWx,2013-11-23 05:46:00,
2013-11-23 00:51:00,39.0,37.0,29.81,WSW,247,0.0,0.0,92,0.00,,,0.00,TxWx,2013-11-23 05:51:00,
2013-11-23 00:56:00,39.0,37.0,29.81,WSW,247,0.0,0.0,91,0.00,,,0.00,TxWx,2013-11-23 05:56:00,
2013-11-23 01:01:00,39.0,37.0,29.81,WSW,247,0.0,0.0,91,0.00,,,0.00,TxWx,2013-11-23 06:01:00,
2013-11-23 01:06:00,39.0,36.0,29.82,WSW,247,0.0,0.0,91,0.00,,,0.00,TxWx,2013-11-23 06:06:00,
2013-11-23 01:11:00,39.0,36.0,29.82,WSW,247,0.0,0.0,91,0.00,,,0.00,TxWx,2013-11-23 06:11:00,
2013-11-23 01:16:00,38.0,35.0,29.81,WSW,247,0.0,0.0,91,0.00,,,0.00,TxWx,2013-11-23 06:16:00,
2013-11-23 01:21:00,38.0,36.0,29.82,WSW,247,0.0,0.0,91,0.00,,,0.00,TxWx,2013-11-23 06:21:00,
2013-11-23 01:26:00,38.0,36.0,29.82,WSW,247,0.0,0.0,92,0.00,,,0.00,TxWx,2013-11-23 06:26:00,
2013-11-23 01:31:00,37.0,35.0,29.82,WSW,247,0.0,0.0,92,0.00,,,0.00,TxWx,2013-11-23 06:31:00,
2013-11-23 01:36:00,37.0,35.0,29.82,WSW,247,0.0,0.0,92,0.00,,,0.00,TxWx,2013-11-23 06:36:00,
2013-11-23 01:41:00,37.0,35.0,29.82,WSW,247,0.0,0.0,92,0.00,,,0.00,TxWx,2013-11-23 06:41:00,
2013-11-23 01:46:00,36.0,34.0,29.82,WSW,247,0.0,0.0,91,0.00,,,0.00,TxWx,2013-11-23 06:46:00,
2013-11-23 01:51:00,37.0,34.0,29.82,WSW,247,0.0,0.0,91,0.00,,,0.00,TxWx,2013-11-23 06:51:00,
2013-11-23 01:56:00,37.0,34.0,29.83,WSW,247,0.0,0.0,91,0.00,,,0.00,TxWx,2013-11-23 06:56:00,
2013-11-23 02:00:00,28.0,20.0,29.83,WSW,247,0.0,0.0,76,0.00,,,0.00,TxWx,2013-11-23 07:00:00,
2013-11-23 02:02:00,37.0,34.0,29.83,WSW,247,0.0,0.0,91,0.00,,,0.00,TxWx,2013-11-23 07:02:00,
2013-11-23 02:03:00,28.0,20.0,29.83,WSW,247,0.0,0.0,76,0.00,,,0.00,TxWx,2013-11-23 07:03:00,
2013-11-23 02:07:00,36.0,33.0,29.83,WSW,247,0.0,0.0,91,0.00,,,0.00,TxWx,2013-11-23 07:07:00,
2013-11-23 02:08:00,28.0,20.0,29.83,WSW,247,0.0,0.0,76,0.00,,,0.00,TxWx,2013-11-23 07:08:00,
2013-11-23 02:09:00,28.0,20.0,29.83,WSW,247,0.0,0.0,76,0.00,,,0.00,TxWx,2013-11-23 07:09:00,
2013-11-23 02:10:00,28.0,21.0,29.83,WSW,247,0.0,0.0,76,0.00,,,0.00,TxWx,2013-11-23 07:10:00,
2013-11-23 02:12:00,36.0,33.0,29.83,WSW,247,0.0,0.0,91,0.00,,,0.00,TxWx,2013-11-23 07:12:00,
2013-11-23 02:13:00,29.0,21.0,29.83,WSW,247,0.0,0.0,75,0.00,,,0.00,TxWx,2013-11-23 07:13:00,
2013-11-23 02:15:00,28.0,21.0,29.83,WSW,247,0.0,0.0,75,0.00,,,0.00,TxWx,2013-11-23 07:15:00,
2013-11-23 02:16:00,28.0,20.0,29.82,WSW,247,0.0,0.0,75,0.00,,,0.00,TxWx,2013-11-23 07:16:00,
2013-11-23 02:17:00,36.0,33.0,29.83,WSW,247,0.0,0.0,91,0.00,,,0.00,TxWx,2013-11-23 07:17:00,
2013-11-23 02:18:00,29.0,21.0,29.82,WSW,247,0.0,0.0,75,0.00,,,0.00,TxWx,2013-11-23 07:18:00,
2013-11-23 02:19:00,29.0,21.0,29.82,WSW,247,0.0,0.0,75,0.00,,,0.00,TxWx,2013-11-23 07:19:00,
2013-11-23 02:21:00,29.0,21.0,29.82,WSW,247,0.0,0.0,75,0.00,,,0.00,TxWx,2013-11-23 07:21:00,
2013-11-23 02:22:00,36.0,33.0,29.83,WSW,247,0.0,0.0,91,0.00,,,0.00,TxWx,2013-11-23 07:22:00,
2013-11-23 02:23:00,29.0,21.0,29.82,WSW,247,0.0,0.0,75,0.00,,,0.00,TxWx,2013-11-23 07:23:00,
2013-11-23 02:24:00,29.0,21.0,29.82,WSW,247,0.0,0.0,75,0.00,,,0.00,TxWx,2013-11-23 07:24:00,
2013-11-23 02:26:00,28.0,20.0,29.82,WSW,247,0.0,0.0,75,0.00,,,0.00,TxWx,2013-11-23 07:26:00,
2013-11-23 02:27:00,35.0,33.0,29.83,WSW,247,0.0,0.0,91,0.00,,,0.00,TxWx,2013-11-23 07:27:00,
2013-11-23 02:32:00,35.0,33.0,29.83,WSW,247,0.0,0.0,91,0.00,,,0.00,TxWx,2013-11-23 07:32:00,
2013-11-23 02:37:00,35.0,33.0,29.83,WSW,247,0.0,0.0,91,0.00,,,0.00,TxWx,2013-11-23 07:37:00,
2013-11-23 02:42:00,35.0,33.0,29.83,WSW,247,0.0,0.0,92,0.00,,,0.00,TxWx,2013-11-23 07:42:00,
2013-11-23 02:47:00,35.0,33.0,29.83,WSW,247,0.0,0.0,92,0.00,,,0.00,TxWx,2013-11-23 07:47:00,
2013-11-23 02:52:00,35.0,33.0,29.83,WSW,247,0.0,0.0,92,0.00,,,0.00,TxWx,2013-11-23 07:52:00,
2013-11-23 02:57:00,35.0,33.0,29.83,WSW,247,0.0,0.0,92,0.00,,,0.00,TxWx,2013-11-23 07:57:00,
2013-11-23 03:02:00,35.0,33.0,29.83,WSW,247,0.0,0.0,92,0.00,,,0.00,TxWx,2013-11-23 08:02:00,
2013-11-23 03:07:00,34.0,31.0,29.83,WSW,247,0.0,0.0,92,0.00,,,0.00,TxWx,2013-11-23 08:07:00,
2013-11-23 03:13:00,34.0,31.0,29.83,WSW,247,0.0,0.0,92,0.00,,,0.00,TxWx,2013-11-23 08:13:00,
2013-11-23 03:18:00,34.0,31.0,29.83,WSW,247,0.0,0.0,92,0.00,,,0.00,TxWx,2013-11-23 08:18:00,
2013-11-23 03:23:00,34.0,31.0,29.83,WSW,247,0.0,0.0,92,0.00,,,0.00,TxWx,2013-11-23 08:23:00,
2013-11-23 03:28:00,34.0,31.0,29.83,WSW,247,0.0,0.0,92,0.00,,,0.00,TxWx,2013-11-23 08:28:00,
2013-11-23 03:33:00,34.0,31.0,29.83,WSW,247,0.0,0.0,91,0.00,,,0.00,TxWx,2013-11-23 08:33:00,
2013-11-23 03:38:00,33.0,31.0,29.83,WSW,247,0.0,0.0,91,0.00,,,0.00,TxWx,2013-11-23 08:38:00,
2013-11-23 03:43:00,34.0,31.0,29.83,WSW,247,0.0,0.0,91,0.00,,,0.00,TxWx,2013-11-23 08:43:00,
2013-11-23 03:48:00,33.0,30.0,29.83,WSW,247,0.0,0.0,91,0.00,,,0.00,TxWx,2013-11-23 08:48:00,
2013-11-23 03:54:00,33.0,30.0,29.82,WSW,247,0.0,0.0,91,0.00,,,0.00,TxWx,2013-11-23 08:54:00,
2013-11-23 03:59:00,33.0,30.0,29.83,WSW,247,0.0,0.0,91,0.00,,,0.00,TxWx,2013-11-23 08:59:00,
2013-11-23 04:04:00,33.0,30.0,29.83,WSW,247,0.0,0.0,91,0.00,,,0.00,TxWx,2013-11-23 09:04:00,
2013-11-23 04:09:00,32.0,29.0,29.83,WSW,247,0.0,0.0,91,0.00,,,0.00,TxWx,2013-11-23 09:09:00,
2013-11-23 04:14:00,32.0,29.0,29.83,WSW,247,0.0,0.0,92,0.00,,,0.00,TxWx,2013-11-23 09:14:00,
2013-11-23 04:15:00,32.0,15.0,29.75,WSW,247,0.0,0.0,51,0.00,,,0.00,TxWx,2013-11-23 09:15:00,
2013-11-23 04:16:00,32.0,15.0,29.75,WSW,247,0.0,0.0,52,0.00,,,0.00,TxWx,2013-11-23 09:16:00,
2013-11-23 04:19:00,33.0,30.0,29.84,WSW,247,0.0,0.0,92,0.00,,,0.00,TxWx,2013-11-23 09:19:00,
2013-11-23 04:20:00,32.0,15.0,29.75,WSW,247,0.0,0.0,51,0.00,,,0.00,TxWx,2013-11-23 09:20:00,
2013-11-23 04:21:00,32.0,15.0,29.75,WSW,247,0.0,0.0,52,0.00,,,0.00,TxWx,2013-11-23 09:21:00,
2013-11-23 04:22:00,33.0,16.0,29.75,WSW,247,0.0,0.0,52,0.00,,,0.00,TxWx,2013-11-23 09:22:00,
2013-11-23 04:24:00,32.0,29.0,29.84,WSW,247,0.0,0.0,92,0.00,,,0.00,TxWx,2013-11-23 09:24:00,
2013-11-23 04:26:00,32.0,15.0,29.75,WSW,247,0.0,0.0,52,0.00,,,0.00,TxWx,2013-11-23 09:26:00,
2013-11-23 04:27:00,32.0,15.0,29.75,WSW,247,0.0,0.0,51,0.00,,,0.00,TxWx,2013-11-23 09:27:00,
2013-11-23 04:28:00,32.0,15.0,29.75,WSW,247,0.0,0.0,51,0.00,,,0.00,TxWx,2013-11-23 09:28:00,
2013-11-23 04:29:00,32.0,29.0,29.84,WSW,247,0.0,0.0,92,0.00,,,0.00,TxWx,2013-11-23 09:29:00,
2013-11-23 04:32:00,32.0,15.0,29.74,WSW,247,0.0,0.0,51,0.00,,,0.00,TxWx,2013-11-23 09:32:00,
2013-11-23 04:33:00,32.0,15.0,29.75,WSW,247,0.0,0.0,51,0.00,,,0.00,TxWx,2013-11-23 09:33:00,
2013-11-23 04:34:00,32.0,29.0,29.85,WSW,247,0.0,0.0,92,0.00,,,0.00,TxWx,2013-11-23 09:34:00,
2013-11-23 04:35:00,33.0,16.0,29.74,WSW,247,0.0,0.0,51,0.00,,,0.00,TxWx,2013-11-23 09:35:00,
2013-11-23 04:39:00,32.0,29.0,29.84,WSW,247,0.0,0.0,92,0.00,,,0.00,TxWx,2013-11-23 09:39:00,
2013-11-23 04:44:00,32.0,29.0,29.85,WSW,247,0.0,0.0,92,0.00,,,0.00,TxWx,2013-11-23 09:44:00,
2013-11-23 04:49:00,32.0,29.0,29.85,WSW,247,0.0,0.0,91,0.00,,,0.00,TxWx,2013-11-23 09:49:00,
2013-11-23 04:54:00,32.0,29.0,29.85,WSW,247,0.0,0.0,91,0.00,,,0.00,TxWx,2013-11-23 09:54:00,
2013-11-23 04:59:00,32.0,29.0,29.85,WSW,247,0.0,0.0,91,0.00,,,0.00,TxWx,2013-11-23 09:59:00,
2013-11-23 05:04:00,31.0,28.0,29.85,WSW,247,0.0,0.0,90,0.00,,,0.00,TxWx,2013-11-23 10:04:00,
2013-11-23 05:09:00,31.0,27.0,29.84,WSW,247,0.0,0.0,90,0.00,,,0.00,TxWx,2013-11-23 10:09:00,
2013-11-23 05:15:00,31.0,27.0,29.84,WSW,247,0.0,0.0,89,0.00,,,0.00,TxWx,2013-11-23 10:15:00,
2013-11-23 05:20:00,31.0,27.0,29.85,WSW,247,0.0,0.0,89,0.00,,,0.00,TxWx,2013-11-23 10:20:00,
2013-11-23 05:25:00,31.0,27.0,29.84,WSW,247,0.0,0.0,89,0.00,,,0.00,TxWx,2013-11-23 10:25:00,
2013-11-23 05:30:00,30.0,27.0,29.84,WSW,247,0.0,0.0,88,0.00,,,0.00,TxWx,2013-11-23 10:30:00,
2013-11-23 05:35:00,30.0,25.0,29.85,WSW,247,0.0,0.0,87,0.00,,,0.00,TxWx,2013-11-23 10:35:00,
2013-11-23 05:40:00,30.0,25.0,29.85,WSW,247,0.0,0.0,85,0.00,,,0.00,TxWx,2013-11-23 10:40:00,
2013-11-23 05:45:00,30.0,24.0,29.85,WSW,247,0.0,0.0,83,0.00,,,0.00,TxWx,2013-11-23 10:45:00,
2013-11-23 05:50:00,30.0,24.0,29.85,WSW,247,0.0,0.0,82,0.00,,,0.00,TxWx,2013-11-23 10:50:00,
2013-11-23 05:55:00,29.0,23.0,29.85,WSW,247,0.0,0.0,81,0.00,,,0.00,TxWx,2013-11-23 10:55:00,
2013-11-23 06:00:00,29.0,23.0,29.85,WSW,247,0.0,0.0,81,0.00,,,0.00,TxWx,2013-11-23 11:00:00,
2013-11-23 06:05:00,29.0,23.0,29.85,WSW,247,0.0,0.0,81,0.00,,,0.00,TxWx,2013-11-23 11:05:00,
2013-11-23 06:10:00,29.0,23.0,29.85,WSW,247,0.0,0.0,81,0.00,,,0.00,TxWx,2013-11-23 11:10:00,
2013-11-23 06:15:00,29.0,23.0,29.86,WSW,247,0.0,0.0,81,0.00,,,0.00,TxWx,2013-11-23 11:15:00,
2013-11-23 06:20:00,28.0,23.0,29.86,WSW,247,0.0,0.0,81,0.00,,,0.00,TxWx,2013-11-23 11:20:00,
2013-11-23 06:25:00,28.0,22.0,29.86,WSW,247,0.0,0.0,82,0.00,,,0.00,TxWx,2013-11-23 11:25:00,
2013-11-23 06:30:00,28.0,22.0,29.87,WSW,247,0.0,0.0,81,0.00,,,0.00,TxWx,2013-11-23 11:30:00,
2013-11-23 06:36:00,28.0,22.0,29.87,WSW,247,0.0,0.0,81,0.00,,,0.00,TxWx,2013-11-23 11:36:00,
2013-11-23 06:41:00,28.0,22.0,29.87,WSW,247,0.0,0.0,81,0.00,,,0.00,TxWx,2013-11-23 11:41:00,
2013-11-23 06:46:00,27.0,22.0,29.87,WSW,247,0.0,0.0,81,0.00,,,0.00,TxWx,2013-11-23 11:46:00,
2013-11-23 06:51:00,28.0,22.0,29.87,WSW,247,0.0,0.0,80,0.00,,,0.00,TxWx,2013-11-23 11:51:00,
2013-11-23 06:56:00,28.0,21.0,29.88,WSW,247,0.0,0.0,80,0.00,,,0.00,TxWx,2013-11-23 11:56:00,
2013-11-23 07:01:00,27.0,21.0,29.88,WSW,247,0.0,0.0,80,0.00,,,0.00,TxWx,2013-11-23 12:01:00,
2013-11-23 07:02:00,29.0,20.0,29.73,WSW,247,0.0,0.0,76,0.00,,,0.00,TxWx,2013-11-23 12:02:00,
2013-11-23 07:03:00,29.0,20.0,29.73,WSW,247,0.0,0.0,76,0.00,,,0.00,TxWx,2013-11-23 12:03:00,
2013-11-23 07:06:00,27.0,21.0,29.88,WSW,247,0.0,0.0,80,0.00,,,0.00,TxWx,2013-11-23 12:06:00,
2013-11-23 07:07:00,28.0,20.0,29.73,WSW,247,0.0,0.0,76,0.00,,,0.00,TxWx,2013-11-23 12:07:00,
2013-11-23 07:08:00,28.0,20.0,29.73,WSW,247,0.0,0.0,76,0.00,,,0.00,TxWx,2013-11-23 12:08:00,
2013-11-23 07:10:00,28.0,20.0,29.73,WSW,247,0.0,0.0,76,0.00,,,0.00,TxWx,2013-11-23 12:10:00,
2013-11-23 07:11:00,28.0,22.0,29.88,WSW,247,0.0,0.0,80,0.00,,,0.00,TxWx,2013-11-23 12:11:00,
2013-11-23 07:12:00,28.0,20.0,29.74,WSW,247,0.0,0.0,76,0.00,,,0.00,TxWx,2013-11-23 12:12:00,
2013-11-23 07:13:00,27.0,20.0,29.74,WSW,247,0.0,0.0,78,0.00,,,0.02,TxWx,2013-11-23 12:13:00,
2013-11-23 07:16:00,28.0,22.0,29.89,WSW,247,0.0,0.0,80,0.00,,,0.00,TxWx,2013-11-23 12:16:00,
2013-11-23 07:17:00,26.0,21.0,29.74,WSW,247,0.0,0.0,83,0.00,,,0.02,TxWx,2013-11-23 12:17:00,
2013-11-23 07:19:00,26.0,21.0,29.74,WSW,247,0.0,0.0,85,0.00,,,0.02,TxWx,2013-11-23 12:19:00,
2013-11-23 07:20:00,26.0,21.0,29.74,WSW,247,0.0,0.0,85,0.60,,,0.02,TxWx,2013-11-23 12:20:00,
2013-11-23 07:21:00,27.0,21.0,29.89,WSW,247,0.0,0.0,81,0.00,,,0.00,TxWx,2013-11-23 12:21:00,
2013-11-23 07:22:00,26.0,21.0,29.74,WSW,247,0.0,0.0,86,0.60,,,0.02,TxWx,2013-11-23 12:22:00,
2013-11-23 07:24:00,25.0,20.0,29.74,WSW,247,0.0,0.0,86,0.60,,,0.02,TxWx,2013-11-23 12:24:00,
2013-11-23 07:25:00,25.0,21.0,29.74,WSW,247,0.0,0.0,87,0.60,,,0.02,TxWx,2013-11-23 12:25:00,
2013-11-23 07:26:00,27.0,21.0,29.90,WSW,247,0.0,0.0,81,0.00,,,0.00,TxWx,2013-11-23 12:26:00,
2013-11-23 07:31:00,27.0,21.0,29.90,WSW,247,0.0,0.0,81,0.00,,,0.00,TxWx,2013-11-23 12:31:00,
2013-11-23 07:36:00,27.0,21.0,29.90,WSW,247,0.0,0.0,81,0.00,,,0.00,TxWx,2013-11-23 12:36:00,
2013-11-23 07:41:00,27.0,21.0,29.90,WSW,247,0.0,0.0,81,0.00,,,0.00,TxWx,2013-11-23 12:41:00,
2013-11-23 07:46:00,27.0,21.0,29.91,WSW,247,0.0,0.0,82,0.00,,,0.00,TxWx,2013-11-23 12:46:00,
2013-11-23 07:52:00,27.0,21.0,29.91,WSW,247,0.0,0.0,82,0.00,,,0.00,TxWx,2013-11-23 12:52:00,
2013-11-23 07:57:00,27.0,21.0,29.91,WSW,247,0.0,0.0,82,0.00,,,0.00,TxWx,2013-11-23 12:57:00,
2013-11-23 08:02:00,27.0,21.0,29.91,WSW,247,0.0,0.0,82,0.00,,,0.00,TxWx,2013-11-23 13:02:00,
2013-11-23 08:07:00,27.0,21.0,29.91,WSW,247,0.0,0.0,82,0.00,,,0.00,TxWx,2013-11-23 13:07:00,
2013-11-23 08:10:00,25.0,22.0,29.74,WSW,247,0.0,0.0,92,0.00,,,0.02,TxWx,2013-11-23 13:10:00,
2013-11-23 08:12:00,27.0,21.0,29.90,WSW,247,0.0,0.0,81,0.00,,,0.00,TxWx,2013-11-23 13:12:00,
2013-11-23 08:14:00,25.0,22.0,29.74,WSW,247,0.0,0.0,92,0.00,,,0.02,TxWx,2013-11-23 13:14:00,
2013-11-23 08:15:00,25.0,22.0,29.74,WSW,247,0.0,0.0,92,0.00,,,0.02,TxWx,2013-11-23 13:15:00,
2013-11-23 08:16:00,25.0,22.0,29.74,WSW,247,0.0,0.0,92,0.00,,,0.02,TxWx,2013-11-23 13:16:00,
2013-11-23 08:17:00,27.0,21.0,29.90,WSW,247,0.0,0.0,80,0.00,,,0.00,TxWx,2013-11-23 13:17:00,
2013-11-23 08:20:00,25.0,22.0,29.74,WSW,247,0.0,0.0,91,0.00,,,0.02,TxWx,2013-11-23 13:20:00,
2013-11-23 08:21:00,25.0,22.0,29.74,WSW,247,0.0,0.0,91,0.00,,,0.02,TxWx,2013-11-23 13:21:00,
2013-11-23 08:22:00,28.0,22.0,29.90,WSW,247,0.0,0.0,80,0.00,,,0.00,TxWx,2013-11-23 13:22:00,
2013-11-23 08:23:00,25.0,22.0,29.74,WSW,247,0.0,0.0,91,0.00,,,0.02,TxWx,2013-11-23 13:23:00,
2013-11-23 08:24:00,25.0,22.0,29.74,WSW,247,0.0,0.0,91,0.00,,,0.02,TxWx,2013-11-23 13:24:00,
2013-11-23 08:25:00,25.0,21.0,29.74,WSW,247,0.0,0.0,90,0.00,,,0.02,TxWx,2013-11-23 13:25:00,
2013-11-23 08:27:00,28.0,22.0,29.90,WSW,247,0.0,0.0,80,0.00,,,0.00,TxWx,2013-11-23 13:27:00,
2013-11-23 08:32:00,28.0,21.0,29.90,WSW,247,0.0,0.0,80,0.00,,,0.00,TxWx,2013-11-23 13:32:00,
2013-11-23 08:37:00,28.0,21.0,29.90,WSW,247,0.0,0.0,79,0.00,,,0.00,TxWx,2013-11-23 13:37:00,
2013-11-23 08:43:00,28.0,21.0,29.90,WSW,247,0.0,0.0,78,0.00,,,0.00,TxWx,2013-11-23 13:43:00,
2013-11-23 08:48:00,28.0,21.0,29.89,WSW,247,0.0,0.0,77,0.00,,,0.00,TxWx,2013-11-23 13:48:00,
2013-11-23 08:53:00,28.0,21.0,29.90,WSW,247,0.0,0.0,77,0.00,,,0.00,TxWx,2013-11-23 13:53:00,
2013-11-23 08:58:00,28.0,20.0,29.90,WSW,247,0.0,0.0,76,0.00,,,0.00,TxWx,2013-11-23 13:58:00,
2013-11-23 09:03:00,28.0,20.0,29.89,WSW,247,0.0,0.0,76,0.00,,,0.00,TxWx,2013-11-23 14:03:00,
2013-11-23 09:08:00,28.0,21.0,29.90,WSW,247,0.0,0.0,77,0.00,,,0.00,TxWx,2013-11-23 14:08:00,
2013-11-23 09:13:00,28.0,21.0,29.90,WSW,247,0.0,0.0,77,0.00,,,0.00,TxWx,2013-11-23 14:13:00,
2013-11-23 09:18:00,28.0,21.0,29.90,WSW,247,0.0,0.0,78,0.00,,,0.00,TxWx,2013-11-23 14:18:00,
2013-11-23 09:23:00,28.0,21.0,29.90,WSW,247,0.0,0.0,78,0.00,,,0.00,TxWx,2013-11-23 14:23:00,
2013-11-23 09:28:00,28.0,21.0,29.90,WSW,247,0.0,0.0,79,0.00,,,0.00,TxWx,2013-11-23 14:28:00,
2013-11-23 09:34:00,28.0,21.0,29.90,WSW,247,0.0,0.0,79,0.00,,,0.00,TxWx,2013-11-23 14:34:00,
2013-11-23 09:39:00,28.0,21.0,29.90,WSW,247,0.0,0.0,79,0.00,,,0.00,TxWx,2013-11-23 14:39:00,
2013-11-23 09:44:00,28.0,21.0,29.90,WSW,247,0.0,0.0,78,0.00,,,0.00,TxWx,2013-11-23 14:44:00,
2013-11-23 09:49:00,28.0,21.0,29.90,WSW,247,0.0,0.0,78,0.00,,,0.00,TxWx,2013-11-23 14:49:00,
2013-11-23 09:54:00,28.0,21.0,29.90,WSW,247,0.0,0.0,78,0.00,,,0.00,TxWx,2013-11-23 14:54:00,
2013-11-23 09:59:00,28.0,21.0,29.89,WSW,247,0.0,0.0,77,0.00,,,0.00,TxWx,2013-11-23 14:59:00,
2013-11-23 10:04:00,28.0,20.0,29.90,WSW,247,0.0,0.0,76,0.00,,,0.00,TxWx,2013-11-23 15:04:00,
2013-11-23 10:09:00,28.0,20.0,29.90,WSW,247,0.0,0.0,76,0.00,,,0.00,TxWx,2013-11-23 15:09:00,
2013-11-23 10:14:00,29.0,22.0,29.89,WSW,247,0.0,0.0,77,0.00,,,0.00,TxWx,2013-11-23 15:14:00,
2013-11-23 10:19:00,28.0,20.0,29.89,WSW,247,0.0,0.0,75,0.00,,,0.00,TxWx,2013-11-23 15:19:00,
2013-11-23 10:24:00,28.0,20.0,29.89,WSW,247,0.0,0.0,75,0.00,,,0.00,TxWx,2013-11-23 15:24:00,
2013-11-23 10:29:00,28.0,20.0,29.89,WSW,247,0.0,0.0,74,0.00,,,0.00,TxWx,2013-11-23 15:29:00,
2013-11-23 10:34:00,28.0,20.0,29.89,WSW,247,0.0,0.0,74,0.00,,,0.00,TxWx,2013-11-23 15:34:00,
2013-11-23 10:40:00,29.0,20.0,29.88,WSW,247,0.0,0.0,74,0.00,,,0.00,TxWx,2013-11-23 15:40:00,
2013-11-23 10:45:00,28.0,20.0,29.88,WSW,247,0.0,0.0,74,0.00,,,0.00,TxWx,2013-11-23 15:45:00,
2013-11-23 10:50:00,28.0,20.0,29.87,WSW,247,0.0,0.0,75,0.00,,,0.00,TxWx,2013-11-23 15:50:00,
2013-11-23 10:55:00,28.0,20.0,29.87,WSW,247,0.0,0.0,75,0.00,,,0.00,TxWx,2013-11-23 15:55:00,
2013-11-23 11:00:00,28.0,19.0,29.87,WSW,247,0.0,0.0,75,0.00,,,0.00,TxWx,2013-11-23 16:00:00,
2013-11-23 11:05:00,28.0,20.0,29.87,WSW,247,0.0,0.0,75,0.00,,,0.00,TxWx,2013-11-23 16:05:00,
2013-11-23 11:10:00,28.0,20.0,29.87,WSW,247,0.0,0.0,75,0.00,,,0.00,TxWx,2013-11-23 16:10:00,
2013-11-23 11:15:00,28.0,20.0,29.86,WSW,247,0.0,0.0,75,0.00,,,0.00,TxWx,2013-11-23 16:15:00,
2013-11-23 11:20:00,27.0,20.0,29.86,WSW,247,0.0,0.0,75,0.00,,,0.00,TxWx,2013-11-23 16:20:00,
2013-11-23 11:25:00,27.0,20.0,29.86,WSW,247,0.0,0.0,75,0.00,,,0.00,TxWx,2013-11-23 16:25:00,
2013-11-23 11:30:00,28.0,20.0,29.86,WSW,247,0.0,0.0,76,0.00,,,0.00,TxWx,2013-11-23 16:30:00,
2013-11-23 11:35:00,27.0,19.0,29.85,WSW,247,0.0,0.0,76,0.00,,,0.00,TxWx,2013-11-23 16:35:00,
2013-11-23 11:40:00,27.0,20.0,29.85,WSW,247,0.0,0.0,77,0.00,,,0.00,TxWx,2013-11-23 16:40:00,
2013-11-23 11:45:00,27.0,19.0,29.84,WSW,247,0.0,0.0,76,0.00,,,0.00,TxWx,2013-11-23 16:45:00,
2013-11-23 11:51:00,27.0,19.0,29.84,WSW,247,0.0,0.0,76,0.00,,,0.00,TxWx,2013-11-23 16:51:00,
2013-11-23 11:56:00,28.0,20.0,29.84,WSW,247,0.0,0.0,76,0.00,,,0.00,TxWx,2013-11-23 16:56:00,
2013-11-23 12:01:00,28.0,20.0,29.83,WSW,247,0.0,0.0,76,0.00,,,0.00,TxWx,2013-11-23 17:01:00,
2013-11-23 12:07:00,28.0,20.0,29.83,WSW,247,0.0,0.0,76,0.00,,,0.00,TxWx,2013-11-23 17:07:00,
2013-11-23 12:12:00,28.0,20.0,29.83,WSW,247,0.0,0.0,75,0.00,,,0.00,TxWx,2013-11-23 17:12:00,
2013-11-23 12:17:00,28.0,20.0,29.82,WSW,247,0.0,0.0,75,0.00,,,0.00,TxWx,2013-11-23 17:17:00,
2013-11-23 12:22:00,29.0,21.0,29.82,WSW,247,0.0,0.0,75,0.00,,,0.00,TxWx,2013-11-23 17:22:00,
2013-11-23 12:27:00,29.0,21.0,29.82,WSW,247,0.0,0.0,75,0.00,,,0.00,TxWx,2013-11-23 17:27:00,
2013-11-23 12:33:00,29.0,21.0,29.82,WSW,247,0.0,0.0,74,0.00,,,0.00,TxWx,2013-11-23 17:33:00,
2013-11-23 12:38:00,30.0,21.0,29.81,WSW,247,0.0,0.0,73,0.00,,,0.00,TxWx,2013-11-23 17:38:00,
2013-11-23 12:43:00,30.0,20.0,29.80,WSW,247,0.0,0.0,70,0.00,,,0.00,TxWx,2013-11-23 17:43:00,
2013-11-23 12:48:00,30.0,20.0,29.80,WSW,247,0.0,0.0,69,0.00,,,0.00,TxWx,2013-11-23 17:48:00,
2013-11-23 12:53:00,31.0,21.0,29.80,WSW,247,0.0,0.0,69,0.00,,,0.00,TxWx,2013-11-23 17:53:00,
2013-11-23 12:58:00,31.0,21.0,29.80,WSW,247,0.0,0.0,68,0.00,,,0.00,TxWx,2013-11-23 17:58:00,
2013-11-23 13:03:00,31.0,20.0,29.79,WSW,247,0.0,0.0,68,0.00,,,0.00,TxWx,2013-11-23 18:03:00,
2013-11-23 13:08:00,31.0,20.0,29.79,WSW,247,0.0,0.0,67,0.00,,,0.00,TxWx,2013-11-23 18:08:00,
2013-11-23 13:13:00,31.0,19.0,29.78,WSW,247,0.0,0.0,65,0.00,,,0.00,TxWx,2013-11-23 18:13:00,
2013-11-23 13:18:00,31.0,19.0,29.78,WSW,247,0.0,0.0,64,0.00,,,0.00,TxWx,2013-11-23 18:18:00,
2013-11-23 13:23:00,31.0,19.0,29.78,WSW,247,0.0,0.0,63,0.00,,,0.00,TxWx,2013-11-23 18:23:00,
2013-11-23 13:28:00,32.0,19.0,29.77,WSW,247,0.0,0.0,62,0.00,,,0.00,TxWx,2013-11-23 18:28:00,
2013-11-23 13:33:00,32.0,19.0,29.77,WSW,247,0.0,0.0,62,0.00,,,0.00,TxWx,2013-11-23 18:33:00,
2013-11-23 13:38:00,32.0,18.0,29.77,WSW,247,0.0,0.0,59,0.00,,,0.00,TxWx,2013-11-23 18:38:00,
2013-11-23 13:44:00,32.0,18.0,29.77,WSW,247,0.0,0.0,59,0.00,,,0.00,TxWx,2013-11-23 18:44:00,
2013-11-23 13:49:00,32.0,18.0,29.76,WSW,247,0.0,0.0,59,0.00,,,0.00,TxWx,2013-11-23 18:49:00,
2013-11-23 13:54:00,32.0,17.0,29.76,WSW,247,0.0,0.0,56,0.00,,,0.00,TxWx,2013-11-23 18:54:00,
2013-11-23 13:59:00,32.0,16.0,29.76,WSW,247,0.0,0.0,54,0.00,,,0.00,TxWx,2013-11-23 18:59:00,
2013-11-23 14:01:00,17.0,13.0,29.76,WSW,247,0.0,0.0,88,0.00,,,0.00,TxWx,2013-11-23 19:01:00,
2013-11-23 14:02:00,17.0,13.0,29.76,WSW,247,0.0,0.0,88,0.00,,,0.00,TxWx,2013-11-23 19:02:00,
2013-11-23 14:03:00,17.0,13.0,29.76,WSW,247,0.0,0.0,88,0.00,,,0.00,TxWx,2013-11-23 19:03:00,
2013-11-23 14:04:00,32.0,16.0,29.76,WSW,247,0.0,0.0,54,0.00,,,0.00,TxWx,2013-11-23 19:04:00,
2013-11-23 14:05:00,17.0,13.0,29.76,WSW,247,0.0,0.0,88,0.00,,,0.00,TxWx,2013-11-23 19:05:00,
2013-11-23 14:06:00,17.0,13.0,29.76,WSW,247,0.0,0.0,88,0.00,,,0.00,TxWx,2013-11-23 19:06:00,
2013-11-23 14:07:00,17.0,13.0,29.76,WSW,247,0.0,0.0,87,0.00,,,0.00,TxWx,2013-11-23 19:07:00,
2013-11-23 14:08:00,17.0,13.0,29.76,WSW,247,0.0,0.0,87,0.00,,,0.00,TxWx,2013-11-23 19:08:00,
2013-11-23 14:09:00,32.0,15.0,29.75,WSW,247,0.0,0.0,52,0.00,,,0.00,TxWx,2013-11-23 19:09:00,
2013-11-23 14:10:00,17.0,13.0,29.77,WSW,247,0.0,0.0,87,0.00,,,0.00,TxWx,2013-11-23 19:10:00,
2013-11-23 14:11:00,17.0,13.0,29.76,WSW,247,0.0,0.0,87,0.00,,,0.00,TxWx,2013-11-23 19:11:00,
2013-11-23 14:12:00,17.0,13.0,29.76,WSW,247,0.0,0.0,87,0.00,,,0.00,TxWx,2013-11-23 19:12:00,
2013-11-23 14:13:00,17.0,13.0,29.76,WSW,247,0.0,0.0,87,0.00,,,0.00,TxWx,2013-11-23 19:13:00,
2013-11-23 14:14:00,33.0,16.0,29.75,WSW,247,0.0,0.0,51,0.00,,,0.00,TxWx,2013-11-23 19:14:00,
2013-11-23 14:15:00,17.0,13.0,29.76,WSW,247,0.0,0.0,87,0.00,,,0.00,TxWx,2013-11-23 19:15:00,
2013-11-23 14:16:00,17.0,13.0,29.76,WSW,247,0.0,0.0,87,0.00,,,0.00,TxWx,2013-11-23 19:16:00,
2013-11-23 14:17:00,17.0,13.0,29.76,WSW,247,0.0,0.0,86,0.00,,,0.00,TxWx,2013-11-23 19:17:00,
2013-11-23 14:18:00,17.0,13.0,29.76,WSW,247,0.0,0.0,86,0.00,,,0.00,TxWx,2013-11-23 19:18:00,
2013-11-23 14:19:00,17.0,13.0,29.76,WSW,247,0.0,0.0,86,0.00,,,0.00,TxWx,2013-11-23 19:19:00,
2013-11-23 14:20:00,32.0,15.0,29.75,WSW,247,0.0,0.0,52,0.00,,,0.00,TxWx,2013-11-23 19:20:00,
2013-11-23 14:21:00,17.0,13.0,29.76,WSW,247,0.0,0.0,86,0.00,,,0.00,TxWx,2013-11-23 19:21:00,
2013-11-23 14:22:00,17.0,13.0,29.76,WSW,247,0.0,0.0,86,0.00,,,0.00,TxWx,2013-11-23 19:22:00,
2013-11-23 14:23:00,17.0,13.0,29.76,WSW,247,0.0,0.0,86,0.00,,,0.00,TxWx,2013-11-23 19:23:00,
2013-11-23 14:24:00,17.0,12.0,29.76,WSW,247,0.0,0.0,86,0.00,,,0.00,TxWx,2013-11-23 19:24:00,
2013-11-23 14:25:00,33.0,16.0,29.75,WSW,247,0.0,0.0,51,0.00,,,0.00,TxWx,2013-11-23 19:25:00,
2013-11-23 14:27:00,17.0,13.0,29.76,WSW,247,0.0,0.0,87,0.00,,,0.00,TxWx,2013-11-23 19:27:00,
2013-11-23 14:28:00,17.0,13.0,29.76,WSW,247,0.0,0.0,86,0.00,,,0.00,TxWx,2013-11-23 19:28:00,
2013-11-23 14:29:00,17.0,13.0,29.76,WSW,247,0.0,0.0,86,0.00,,,0.00,TxWx,2013-11-23 19:29:00,
2013-11-23 14:30:00,33.0,16.0,29.75,WSW,247,0.0,0.0,51,0.00,,,0.00,TxWx,2013-11-23 19:30:00,
2013-11-23 14:31:00,17.0,13.0,29.76,WSW,247,0.0,0.0,86,0.00,,,0.00,TxWx,2013-11-23 19:31:00,
2013-11-23 14:32:00,17.0,12.0,29.76,WSW,247,0.0,0.0,86,0.00,,,0.00,TxWx,2013-11-23 19:32:00,
2013-11-23 14:33:00,17.0,13.0,29.76,WSW,247,0.0,0.0,87,0.00,,,0.00,TxWx,2013-11-23 19:33:00,
2013-11-23 14:34:00,16.0,12.0,29.76,WSW,247,0.0,0.0,87,0.00,,,0.00,TxWx,2013-11-23 19:34:00,
2013-11-23 14:35:00,32.0,15.0,29.75,WSW,247,0.0,0.0,51,0.00,,,0.00,TxWx,2013-11-23 19:35:00,
2013-11-23 14:36:00,16.0,12.0,29.76,WSW,247,0.0,0.0,87,0.00,,,0.00,TxWx,2013-11-23 19:36:00,
2013-11-23 14:37:00,17.0,13.0,29.76,WSW,247,0.0,0.0,87,0.00,,,0.00,TxWx,2013-11-23 19:37:00,
2013-11-23 14:40:00,33.0,16.0,29.74,WSW,247,0.0,0.0,52,0.00,,,0.00,TxWx,2013-11-23 19:40:00,
2013-11-23 14:45:00,33.0,16.0,29.74,WSW,247,0.0,0.0,51,0.00,,,0.00,TxWx,2013-11-23 19:45:00,
2013-11-23 14:48:00,16.0,12.0,29.76,WSW,247,0.0,0.0,87,0.00,,,0.00,TxWx,2013-11-23 19:48:00,
2013-11-23 14:50:00,33.0,16.0,29.74,WSW,247,0.0,0.0,52,0.00,,,0.00,TxWx,2013-11-23 19:50:00,
2013-11-23 14:55:00,33.0,15.0,29.74,WSW,247,0.0,0.0,50,0.00,,,0.00,TxWx,2013-11-23 19:55:00,
2013-11-23 14:59:00,16.0,12.0,29.76,WSW,247,0.0,0.0,88,0.00,,,0.00,TxWx,2013-11-23 19:59:00,
2013-11-23 15:00:00,33.0,15.0,29.73,WSW,247,0.0,0.0,50,0.00,,,0.00,TxWx,2013-11-23 20:00:00,
2013-11-23 15:01:00,16.0,12.0,29.76,WSW,247,0.0,0.0,88,0.00,,,0.00,TxWx,2013-11-23 20:01:00,
2013-11-23 15:02:00,16.0,12.0,29.76,WSW,247,0.0,0.0,88,0.00,,,0.00,TxWx,2013-11-23 20:02:00,
2013-11-23 15:05:00,33.0,15.0,29.73,WSW,247,0.0,0.0,52,0.00,,,0.00,TxWx,2013-11-23 20:05:00,
2013-11-23 15:07:00,16.0,12.0,29.76,WSW,247,0.0,0.0,88,0.00,,,0.00,TxWx,2013-11-23 20:07:00,
2013-11-23 15:08:00,16.0,12.0,29.76,WSW,247,0.0,0.0,88,0.00,,,0.00,TxWx,2013-11-23 20:08:00,
2013-11-23 15:09:00,16.0,12.0,29.76,WSW,247,0.0,0.0,88,0.00,,,0.00,TxWx,2013-11-23 20:09:00,
2013-11-23 15:10:00,32.0,15.0,29.73,WSW,247,0.0,0.0,51,0.00,,,0.00,TxWx,2013-11-23 20:10:00,
2013-11-23 15:15:00,32.0,15.0,29.73,WSW,247,0.0,0.0,52,0.00,,,0.00,TxWx,2013-11-23 20:15:00,
2013-11-23 15:16:00,16.0,12.0,29.77,WSW,247,0.0,0.0,89,0.00,,,0.00,TxWx,2013-11-23 20:16:00,
2013-11-23 15:19:00,16.0,12.0,29.77,WSW,247,0.0,0.0,89,0.00,,,0.00,TxWx,2013-11-23 20:19:00,
2013-11-23 15:20:00,32.0,16.0,29.73,WSW,247,0.0,0.0,53,0.00,,,0.00,TxWx,2013-11-23 20:20:00,
2013-11-23 15:21:00,16.0,12.0,29.77,WSW,247,0.0,0.0,90,0.00,,,0.00,TxWx,2013-11-23 20:21:00,
2013-11-23 15:23:00,16.0,13.0,29.77,WSW,247,0.0,0.0,90,0.00,,,0.00,TxWx,2013-11-23 20:23:00,
2013-11-23 15:24:00,16.0,13.0,29.77,WSW,247,0.0,0.0,90,0.00,,,0.00,TxWx,2013-11-23 20:24:00,
2013-11-23 15:25:00,31.0,16.0,29.73,WSW,247,0.0,0.0,55,0.00,,,0.00,TxWx,2013-11-23 20:25:00,
2013-11-23 15:26:00,15.0,12.0,29.77,WSW,247,0.0,0.0,91,0.00,,,0.00,TxWx,2013-11-23 20:26:00,
2013-11-23 15:29:00,15.0,12.0,29.77,WSW,247,0.0,0.0,91,0.00,,,0.00,TxWx,2013-11-23 20:29:00,
2013-11-23 15:30:00,30.0,16.0,29.73,WSW,247,0.0,0.0,59,0.00,,,0.00,TxWx,2013-11-23 20:30:00,
2013-11-23 15:31:00,15.0,12.0,29.77,WSW,247,0.0,0.0,91,0.00,,,0.00,TxWx,2013-11-23 20:31:00,
2013-11-23 15:33:00,15.0,12.0,29.78,WSW,247,0.0,0.0,92,0.00,,,0.00,TxWx,2013-11-23 20:33:00,
2013-11-23 15:36:00,16.0,13.0,29.78,WSW,247,0.0,0.0,92,0.00,,,0.00,TxWx,2013-11-23 20:36:00,
2013-11-23 15:37:00,30.0,18.0,29.72,WSW,247,0.0,0.0,63,0.00,,,0.00,TxWx,2013-11-23 20:37:00,
2013-11-23 15:42:00,29.0,18.0,29.72,WSW,247,0.0,0.0,66,0.00,,,0.00,TxWx,2013-11-23 20:42:00,
2013-11-23 15:47:00,29.0,19.0,29.72,WSW,247,0.0,0.0,68,0.00,,,0.00,TxWx,2013-11-23 20:47:00,
2013-11-23 15:52:00,29.0,19.0,29.72,WSW,247,0.0,0.0,69,0.00,,,0.00,TxWx,2013-11-23 20:52:00,
2013-11-23 15:57:00,29.0,19.0,29.72,WSW,247,0.0,0.0,69,0.00,,,0.00,TxWx,2013-11-23 20:57:00,
2013-11-23 16:02:00,30.0,20.0,29.72,WSW,247,0.0,0.0,68,0.00,,,0.00,TxWx,2013-11-23 21:02:00,
2013-11-23 16:08:00,30.0,19.0,29.73,WSW,247,0.0,0.0,70,0.00,,,0.00,TxWx,2013-11-23 21:08:00,
2013-11-23 16:13:00,30.0,21.0,29.72,WSW,247,0.0,0.0,72,0.00,,,0.00,TxWx,2013-11-23 21:13:00,
2013-11-23 16:18:00,29.0,20.0,29.72,WSW,247,0.0,0.0,73,0.00,,,0.00,TxWx,2013-11-23 21:18:00,
2013-11-23 16:23:00,28.0,20.0,29.72,WSW,247,0.0,0.0,75,0.00,,,0.00,TxWx,2013-11-23 21:23:00,
2013-11-23 16:28:00,28.0,20.0,29.72,WSW,247,0.0,0.0,76,0.00,,,0.00,TxWx,2013-11-23 21:28:00,
2013-11-23 16:33:00,28.0,21.0,29.72,WSW,247,0.0,0.0,77,0.00,,,0.00,TxWx,2013-11-23 21:33:00,
2013-11-23 16:39:00,28.0,21.0,29.72,WSW,247,0.0,0.0,77,0.00,,,0.00,TxWx,2013-11-23 21:39:00,
2013-11-23 16:44:00,28.0,21.0,29.72,WSW,247,0.0,0.0,77,0.00,,,0.00,TxWx,2013-11-23 21:44:00,
2013-11-23 16:49:00,28.0,21.0,29.72,WSW,247,0.0,0.0,77,0.00,,,0.00,TxWx,2013-11-23 21:49:00,
2013-11-23 16:54:00,28.0,21.0,29.72,WSW,247,0.0,0.0,77,0.00,,,0.00,TxWx,2013-11-23 21:54:00,
2013-11-23 16:59:00,28.0,21.0,29.72,WSW,247,0.0,0.0,77,0.00,,,0.00,TxWx,2013-11-23 21:59:00,
2013-11-23 17:04:00,29.0,21.0,29.73,WSW,247,0.0,0.0,76,0.00,,,0.00,TxWx,2013-11-23 22:04:00,
2013-11-23 17:09:00,28.0,20.0,29.73,WSW,247,0.0,0.0,76,0.00,,,0.00,TxWx,2013-11-23 22:09:00,
2013-11-23 17:16:00,26.0,20.0,29.74,WSW,247,0.0,0.0,82,0.00,,,0.02,TxWx,2013-11-23 22:16:00,
2013-11-23 17:21:00,25.0,21.0,29.74,WSW,247,0.0,0.0,86,0.60,,,0.02,TxWx,2013-11-23 22:21:00,
2013-11-23 17:26:00,25.0,21.0,29.74,WSW,247,0.0,0.0,87,0.60,,,0.02,TxWx,2013-11-23 22:26:00,
2013-11-23 17:31:00,25.0,21.0,29.74,WSW,247,0.0,0.0,88,0.00,,,0.02,TxWx,2013-11-23 22:31:00,
2013-11-23 17:36:00,25.0,21.0,29.74,WSW,247,0.0,0.0,89,0.00,,,0.02,TxWx,2013-11-23 22:36:00,
2013-11-23 17:41:00,25.0,21.0,29.74,WSW,247,0.0,0.0,89,0.00,,,0.02,TxWx,2013-11-23 22:41:00,
2013-11-23 17:46:00,25.0,21.0,29.74,WSW,247,0.0,0.0,89,0.00,,,0.02,TxWx,2013-11-23 22:46:00,
2013-11-23 17:51:00,25.0,21.0,29.74,WSW,247,0.0,0.0,90,0.00,,,0.02,TxWx,2013-11-23 22:51:00,
2013-11-23 17:56:00,25.0,21.0,29.74,WSW,247,0.0,0.0,90,0.00,,,0.02,TxWx,2013-11-23 22:56:00,
2013-11-23 18:01:00,25.0,22.0,29.74,WSW,247,0.0,0.0,91,0.00,,,0.02,TxWx,2013-11-23 23:01:00,
2013-11-23 18:06:00,25.0,22.0,29.74,WSW,247,0.0,0.0,92,0.00,,,0.02,TxWx,2013-11-23 23:06:00,
2013-11-23 18:11:00,25.0,22.0,29.74,WSW,247,0.0,0.0,92,0.00,,,0.02,TxWx,2013-11-23 23:11:00,
2013-11-23 18:17:00,25.0,22.0,29.74,WSW,247,0.0,0.0,92,0.00,,,0.02,TxWx,2013-11-23 23:17:00,
2013-11-23 18:22:00,25.0,22.0,29.74,WSW,247,0.0,0.0,91,0.00,,,0.02,TxWx,2013-11-23 23:22:00,
2013-11-23 18:27:00,25.0,21.0,29.74,WSW,247,0.0,0.0,90,0.00,,,0.02,TxWx,2013-11-23 23:27:00,
2013-11-23 18:32:00,25.0,21.0,29.74,WSW,247,0.0,0.0,89,0.00,,,0.02,TxWx,2013-11-23 23:32:00,
2013-11-23 18:37:00,25.0,21.0,29.74,WSW,247,0.0,0.0,88,0.00,,,0.02,TxWx,2013-11-23 23:37:00,
2013-11-23 18:42:00,25.0,21.0,29.74,WSW,247,0.0,0.0,87,0.00,,,0.02,TxWx,2013-11-23 23:42:00,
2013-11-23 18:47:00,25.0,21.0,29.75,WSW,247,0.0,0.0,88,0.00,,,0.02,TxWx,2013-11-23 23:47:00,
2013-11-23 18:52:00,23.0,20.0,29.75,WSW,247,0.0,0.0,91,0.00,,,0.02,TxWx,2013-11-23 23:52:00,
2013-11-23 18:57:00,22.0,20.0,29.75,WSW,247,0.0,0.0,94,0.00,,,0.02,TxWx,2013-11-23 23:57:00,
2013-11-23 19:03:00,22.0,20.0,29.74,WSW,247,0.0,0.0,95,0.00,,,0.02,TxWx,2013-11-24 00:03:00,
2013-11-23 19:08:00,22.0,20.0,29.75,WSW,247,0.0,0.0,96,0.00,,,0.02,TxWx,2013-11-24 00:08:00,
2013-11-23 19:13:00,22.0,20.0,29.75,WSW,247,0.0,0.0,97,0.00,,,0.02,TxWx,2013-11-24 00:13:00,
2013-11-23 19:18:00,23.0,21.0,29.75,WSW,247,0.0,0.0,96,0.00,,,0.02,TxWx,2013-11-24 00:18:00,
2013-11-23 19:23:00,23.0,21.0,29.75,WSW,247,0.0,0.0,96,0.00,,,0.02,TxWx,2013-11-24 00:23:00,
2013-11-23 19:28:00,23.0,21.0,29.75,WSW,247,0.0,0.0,96,0.00,,,0.02,TxWx,2013-11-24 00:28:00,
2013-11-23 19:33:00,23.0,21.0,29.75,WSW,247,0.0,0.0,95,0.00,,,0.02,TxWx,2013-11-24 00:33:00,
2013-11-23 19:38:00,23.0,20.0,29.74,WSW,247,0.0,0.0,94,0.00,,,0.02,TxWx,2013-11-24 00:38:00,
2013-11-23 19:43:00,23.0,20.0,29.74,WSW,247,0.0,0.0,93,0.00,,,0.02,TxWx,2013-11-24 00:43:00,
2013-11-23 19:48:00,23.0,20.0,29.75,WSW,247,0.0,0.0,93,0.00,,,0.02,TxWx,2013-11-24 00:48:00,
2013-11-23 19:53:00,23.0,20.0,29.74,WSW,247,0.0,0.0,92,0.00,,,0.02,TxWx,2013-11-24 00:53:00,
2013-11-23 19:58:00,23.0,21.0,29.74,WSW,247,0.0,0.0,92,0.00,,,0.02,TxWx,2013-11-24 00:58:00,
2013-11-23 20:04:00,24.0,20.0,29.74,WSW,247,0.0,0.0,90,0.00,,,0.02,TxWx,2013-11-24 01:04:00,
2013-11-23 20:09:00,23.0,19.0,29.74,WSW,247,0.0,0.0,89,0.00,,,0.02,TxWx,2013-11-24 01:09:00,
2013-11-23 20:14:00,21.0,18.0,29.75,WSW,247,0.0,0.0,93,0.00,,,0.03,TxWx,2013-11-24 01:14:00,
2013-11-23 20:19:00,21.0,19.0,29.75,WSW,247,0.0,0.0,96,0.00,,,0.03,TxWx,2013-11-24 01:19:00,
2013-11-23 20:24:00,21.0,19.0,29.74,WSW,247,0.0,0.0,97,0.60,,,0.03,TxWx,2013-11-24 01:24:00,
2013-11-23 20:30:00,21.0,19.0,29.75,WSW,247,0.0,0.0,98,0.60,,,0.03,TxWx,2013-11-24 01:30:00,
2013-11-23 20:35:00,21.0,20.0,29.75,WSW,247,0.0,0.0,98,0.00,,,0.03,TxWx,2013-11-24 01:35:00,
2013-11-23 20:40:00,20.0,19.0,29.75,WSW,247,0.0,0.0,99,0.00,,,0.03,TxWx,2013-11-24 01:40:00,
2013-11-23 20:45:00,20.0,20.0,29.75,WSW,247,0.0,0.0,99,0.00,,,0.03,TxWx,2013-11-24 01:45:00,
2013-11-23 20:50:00,21.0,20.0,29.75,WSW,247,0.0,0.0,99,0.00,,,0.03,TxWx,2013-11-24 01:50:00,
2013-11-23 20:55:00,20.0,19.0,29.75,WSW,247,0.0,0.0,99,0.00,,,0.03,TxWx,2013-11-24 01:55:00,
2013-11-23 21:00:00,21.0,21.0,29.75,WSW,247,0.0,0.0,100,0.00,,,0.03,TxWx,2013-11-24 02:00:00,
2013-11-23 21:06:00,21.0,21.0,29.76,WSW,247,0.0,0.0,100,0.00,,,0.03,TxWx,2013-11-24 02:06:00,
2013-11-23 21:11:00,20.0,20.0,29.75,WSW,247,0.0,0.0,100,0.60,,,0.05,TxWx,2013-11-24 02:11:00,
2013-11-23 21:16:00,20.0,20.0,29.75,WSW,247,0.0,0.0,100,0.60,,,0.05,TxWx,2013-11-24 02:16:00,
2013-11-23 21:21:00,19.0,19.0,29.76,WSW,247,0.0,0.0,100,0.00,,,0.05,TxWx,2013-11-24 02:21:00,
2013-11-23 21:26:00,18.0,18.0,29.75,WSW,247,0.0,0.0,100,0.00,,,0.05,TxWx,2013-11-24 02:26:00,
2013-11-23 21:31:00,18.0,19.0,29.76,WSW,247,0.0,0.0,100,0.00,,,0.05,TxWx,2013-11-24 02:31:00,
2013-11-23 21:36:00,18.0,18.0,29.75,WSW,247,0.0,0.0,100,0.00,,,0.05,TxWx,2013-11-24 02:36:00,
2013-11-23 21:41:00,18.0,18.0,29.75,WSW,247,0.0,0.0,100,0.00,,,0.05,TxWx,2013-11-24 02:41:00,
2013-11-23 21:47:00,19.0,19.0,29.75,WSW,247,0.0,0.0,100,0.00,,,0.05,TxWx,2013-11-24 02:47:00,
2013-11-23 21:52:00,19.0,19.0,29.75,WSW,247,0.0,0.0,100,0.00,,,0.05,TxWx,2013-11-24 02:52:00,
2013-11-23 21:57:00,19.0,19.0,29.76,WSW,247,0.0,0.0,100,0.00,,,0.05,TxWx,2013-11-24 02:57:00,
2013-11-23 22:02:00,19.0,19.0,29.75,WSW,247,0.0,0.0,100,0.00,,,0.05,TxWx,2013-11-24 03:02:00,
2013-11-23 22:06:00,8.0,1.0,29.87,WSW,247,0.0,0.0,75,0.00,,,0.00,TxWx,2013-11-24 03:06:00,
2013-11-23 22:07:00,19.0,19.0,29.76,WSW,247,0.0,0.0,100,0.00,,,0.05,TxWx,2013-11-24 03:07:00,
2013-11-23 22:08:00,8.0,1.0,29.87,WSW,247,0.0,0.0,75,0.00,,,0.00,TxWx,2013-11-24 03:08:00,
2013-11-23 22:09:00,8.0,1.0,29.87,WSW,247,0.0,0.0,75,0.00,,,0.00,TxWx,2013-11-24 03:09:00,
2013-11-23 22:12:00,19.0,19.0,29.75,WSW,247,0.0,0.0,100,0.00,,,0.05,TxWx,2013-11-24 03:12:00,
2013-11-23 22:13:00,8.0,1.0,29.87,WSW,247,0.0,0.0,75,0.00,,,0.00,TxWx,2013-11-24 03:13:00,
2013-11-23 22:15:00,8.0,0.0,29.87,WSW,247,0.0,0.0,74,0.00,,,0.00,TxWx,2013-11-24 03:15:00,
2013-11-23 22:16:00,8.0,0.0,29.87,WSW,247,0.0,0.0,74,0.00,,,0.00,TxWx,2013-11-24 03:16:00,
2013-11-23 22:17:00,20.0,20.0,29.75,WSW,247,0.0,0.0,100,0.00,,,0.05,TxWx,2013-11-24 03:17:00,
2013-11-23 22:19:00,8.0,0.0,29.87,WSW,247,0.0,0.0,74,0.00,,,0.00,TxWx,2013-11-24 03:19:00,
2013-11-23 22:20:00,8.0,0.0,29.87,WSW,247,0.0,0.0,74,0.00,,,0.00,TxWx,2013-11-24 03:20:00,
2013-11-23 22:21:00,8.0,0.0,29.87,WSW,247,0.0,0.0,74,0.00,,,0.00,TxWx,2013-11-24 03:21:00,
2013-11-23 22:22:00,19.0,19.0,29.75,WSW,247,0.0,0.0,100,0.00,,,0.05,TxWx,2013-11-24 03:22:00,
2013-11-23 22:23:00,8.0,0.0,29.87,WSW,247,0.0,0.0,74,0.00,,,0.00,TxWx,2013-11-24 03:23:00,
2013-11-23 22:24:00,8.0,0.0,29.87,WSW,247,0.0,0.0,74,0.00,,,0.00,TxWx,2013-11-24 03:24:00,
2013-11-23 22:26:00,8.0,0.0,29.88,WSW,247,0.0,0.0,74,0.00,,,0.00,TxWx,2013-11-24 03:26:00,
2013-11-23 22:27:00,19.0,19.0,29.75,WSW,247,0.0,0.0,100,0.00,,,0.05,TxWx,2013-11-24 03:27:00,
2013-11-23 22:28:00,8.0,0.0,29.88,WSW,247,0.0,0.0,74,0.00,,,0.00,TxWx,2013-11-24 03:28:00,
2013-11-23 22:31:00,8.0,1.0,29.88,WSW,247,0.0,0.0,73,0.00,,,0.00,TxWx,2013-11-24 03:31:00,
2013-11-23 22:33:00,19.0,19.0,29.74,WSW,247,0.0,0.0,100,0.00,,,0.05,TxWx,2013-11-24 03:33:00,
2013-11-23 22:34:00,9.0,1.0,29.89,WSW,247,0.0,0.0,73,0.00,,,0.00,TxWx,2013-11-24 03:34:00,
2013-11-23 22:36:00,9.0,1.0,29.89,WSW,247,0.0,0.0,72,0.00,,,0.00,TxWx,2013-11-24 03:36:00,
2013-11-23 22:38:00,17.0,17.0,29.75,WSW,247,0.0,0.0,100,0.00,,,0.05,TxWx,2013-11-24 03:38:00,
2013-11-23 22:39:00,8.0,0.0,29.89,WSW,247,0.0,0.0,72,0.00,,,0.00,TxWx,2013-11-24 03:39:00,
2013-11-23 22:43:00,17.0,17.0,29.75,WSW,247,0.0,0.0,100,0.00,,,0.05,TxWx,2013-11-24 03:43:00,
2013-11-23 22:48:00,17.0,17.0,29.75,WSW,247,0.0,0.0,100,0.00,,,0.05,TxWx,2013-11-24 03:48:00,
2013-11-23 22:53:00,18.0,18.0,29.75,WSW,247,0.0,0.0,100,0.00,,,0.05,TxWx,2013-11-24 03:53:00,
2013-11-23 22:58:00,17.0,17.0,29.75,WSW,247,0.0,0.0,100,0.00,,,0.05,TxWx,2013-11-24 03:58:00,
2013-11-23 23:03:00,17.0,17.0,29.76,WSW,247,0.0,0.0,100,0.00,,,0.05,TxWx,2013-11-24 04:03:00,
2013-11-23 23:08:00,17.0,17.0,29.75,WSW,247,0.0,0.0,100,0.00,,,0.05,TxWx,2013-11-24 04:08:00,
2013-11-23 23:13:00,17.0,17.0,29.76,WSW,247,0.0,0.0,100,0.00,,,0.05,TxWx,2013-11-24 04:13:00,
2013-11-23 23:18:00,17.0,17.0,29.75,WSW,247,0.0,0.0,100,0.00,,,0.05,TxWx,2013-11-24 04:18:00,
2013-11-23 23:23:00,18.0,18.0,29.76,WSW,247,0.0,0.0,100,0.00,,,0.05,TxWx,2013-11-24 04:23:00,
2013-11-23 23:28:00,17.0,16.0,29.75,WSW,247,0.0,0.0,99,0.00,,,0.05,TxWx,2013-11-24 04:28:00,
2013-11-23 23:33:00,17.0,15.0,29.75,WSW,247,0.0,0.0,98,0.00,,,0.05,TxWx,2013-11-24 04:33:00,
2013-11-23 23:38:00,17.0,16.0,29.75,WSW,247,0.0,0.0,96,0.00,,,0.05,TxWx,2013-11-24 04:38:00,
2013-11-23 23:43:00,17.0,14.0,29.75,WSW,247,0.0,0.0,94,0.00,,,0.05,TxWx,2013-11-24 04:43:00,
2013-11-23 23:49:00,17.0,14.0,29.76,WSW,247,0.0,0.0,91,0.00,,,0.05,TxWx,2013-11-24 04:49:00,
2013-11-23 23:54:00,17.0,13.0,29.75,WSW,247,0.0,0.0,89,0.00,,,0.05,TxWx,2013-11-24 04:54:00,
2013-11-23 23:59:00,17.0,13.0,29.76,WSW,247,0.0,0.0,88,0.00,,,0.05,TxWx,2013-11-24 04:59:00,